Location: Brno
(49.2000°N, 16.6330°E)
Time: 16:23:56
(UTC+02:00)

Explorer 11/Cluster Stage 4 - Pass Details

Date: 01 August 2021
Orbit: 467 x 1256 km, 28.8° (Epoch: 27 September)

Event Time Altitude Azimuth Distance (km) Brightness Sun altitude
Rises 10:05:37 0° 216° (SW) 4,127 10.2 43.1°
Reaches altitude 10° 10:10:20 10° 193° (SSW) 3,217 10.0 43.8°
Maximum altitude 10:13:54 13° 167° (SSE) 2,960 10.2 44.3°
Drops below altitude 10° 10:17:28 10° 140° (SE) 3,201 10.6 44.8°
Sets 10:22:07 0° 117° (ESE) 4,092 11.0 45.5°
